Regional Weather Roundup
Issued by NWS New Orleans/Baton Rouge, LA

Home | Current Version | Previous Version | Text Only | Print | Product List | Glossary Off
Versions: 1 2 3 4 5 6 7 8 9 10 11 12 13 14 15 16 17 18 19 20 21 22 23 24 25 26 27 28 29 30 31 32 33 34 35 36 37 38 39 40 41 42 43 44 45 46 47 48 49 50

674
ASUS44 KLIX 221610
RWRLIX
NEW ORLEANS REGIONAL WEATHER ROUNDUP
NATIONAL WEATHER SERVICE NEW ORLEANS LA
1000 AM CST SAT NOV 22 2014

NOTE: "FAIR" INDICATES FEW OR NO CLOUDS BELOW 12,000 FEET WITH NO
      SIGNIFICANT WEATHER AND/OR OBSTRUCTIONS TO VISIBILITY.
      SKY/WX - SKY CONDITION AND SIGNIFICANT WEATHER.
      TMP - AIR TEMPERATURE.     DP    - DEWPOINT TEMPERATURE.
      RH  - RELATIVE HUMIDITY.   PRES  - PRESSURE.
      HI  - HEAT INDEX.          WCI   - WIND CHILL INDEX.

*  THESE STATIONS ARE NOT NWS OR FAA STATIONS AND ARE NOT UNDER
   NWS QUALITY CONTROL.

LAZ038-040-048-061>063-065>067-069-221700-
SOUTHEAST LOUISIANA

CITY           SKY/WX    TMP DP  RH WIND       PRES   REMARKS
N.O. AUDUBON   NOT AVBL
N.O. INTL ARPT MOSUNNY   67  56  67 E16G23    30.21R
N.O. LAKEFRONT MOSUNNY   66  56  70 E17       30.21F
N.O. DOWNTOWN*   N/A     64  54  68 E8        30.22S
SLIDELL        MOSUNNY   69  55  60 E10G17    30.22S
BATON ROUGE    CLOUDY    64  53  67 E12       30.21S
BOOTHVILLE     MOSUNNY   67  63  87 E9        30.21S
BELLE CHASSE   PTSUNNY   68  58  70 E13       30.21S
BOGALUSA*        N/A     66  51  58 E9        30.26S
NEW ROADS*     CLOUDY    62  53  72 E10G18    30.20S
GONZALES*      CLOUDY    63  56  76 E5        30.21R
HAMMOND*       PTSUNNY   66  52  59 E6        30.23F
HOUMA*         PTSUNNY   66  61  82 E12       30.19S
PORT FOURCHON* NOT AVBL

$$

MSZ070-080>082-221700-
SOUTHERN MISSISSIPPI

CITY           SKY/WX    TMP DP  RH WIND       PRES   REMARKS
MCCOMB         CLOUDY    62  49  62 SE13      30.23F
GULFPORT       SUNNY     66  51  58 E14       30.24S
BILOXI         MOSUNNY   66  51  57 E8        30.24F
PASCAGOULA     SUNNY     68  51  54 E13       30.25F
STENNIS ARPT*  SUNNY     66  48  52 E12G21    30.24F

$$

COASTAL OBSERVATIONS
LAKE AND NEARSHORE STATIONS

STATION/POSITION TIME  TEMP    WIND        PRES    WAVE
                       AIR SEA DIR/SP/G            HT/PER
                 (UTC) (F)     (DEG/KT/KT) (MB)    (FT/S)
PASCAGOULA       1600   64      70/ 14/ 18 1023.9
WAVELAND YACHT   1600   62     110/ 20/ 25 1022.6
GRAND ISLE       1600   65 61   80/  8/ 11 1023.0
SOUTHWEST PASS   1600   71 71              1022.6
NEW CANAL        1600   65 54   80/  4/ 10 1023.4
SHELL BEACH      1600   64 51   90/ 14/ 17 1022.8

OFFSHORE STATIONS

STATION/POSITION TIME  TEMP    WIND        PRES    WAVE
                       AIR SEA DIR/SP/G            HT/PER
                 (UTC) (F)     (DEG/KT/KT) (MB)    (FT/S)
64 S DAUPHIN ISL 1535   70 72   90/ 21/ 23 1023.3    7/ 8

$$




USA.gov is the U.S. government's official web portal to all federal, state and local government web resources and services.